K6NC Weather Reports


Display with metric or nautical units.
time (UTC)temp
F
wind
direction
speed
MPH
gust
MPH
rain 1hr
in
rain 24hr
in
rain mn
in
humidity
%
barometer
mb
20260508190036 72 219 4.0 10.0 0.00 0.00 0.00 63 1017.0
20260508185513 73 246 7.0 10.0 0.00 0.00 0.00 64 1017.0
20260508185010 72 236 6.0 9.0 0.00 0.00 0.00 66 1017.0
20260508184529 72 258 5.0 10.0 0.00 0.00 0.00 65 1017.1
20260508184011 71 271 4.0 11.0 0.00 0.00 0.00 64 1017.1
20260508183512 71 224 4.0 11.0 0.00 0.00 0.00 67 1017.1
20260508183033 70 263 5.0 11.0 0.00 0.00 0.00 66 1017.2
20260508182510 70 263 4.0 10.0 0.00 0.00 0.00 71 1017.2
20260508182011 69 215 5.0 10.0 0.00 0.00 0.00 68 1017.2
20260508181534 68 205 2.0 8.0 0.00 0.00 0.00 70 1017.1
20260508181012 69 268 5.0 8.0 0.00 0.00 0.00 69 1017.1
20260508180512 68 224 2.0 8.0 0.00 0.00 0.00 71 1017.0
20260508180028 69 233 4.0 8.0 0.00 0.00 0.00 70 1017.1
20260508175511 69 263 3.0 8.0 0.00 0.00 0.00 72 1017.2
20260508175016 68 266 4.0 7.0 0.00 0.00 0.00 71 1017.3
20260508174536 67 188 4.0 7.0 0.00 0.00 0.00 73 1017.3
20260508174010 67 219 4.0 7.0 0.00 0.00 0.00 75 1017.4
20260508173513 66 213 2.0 7.0 0.00 0.00 0.00 74 1017.5
20260508173035 66 210 3.0 6.0 0.00 0.00 0.00 76 1017.5
20260508172512 66 221 3.0 6.0 0.00 0.00 0.00 76 1017.4
20260508172013 65 0 2.0 7.0 0.00 0.00 0.00 75 1017.5
20260508171529 65 309 1.0 7.0 0.00 0.00 0.00 78 1017.6
20260508171012 65 219 3.0 7.0 0.00 0.00 0.00 76 1017.7
20260508170511 64 175 1.0 7.0 0.00 0.00 0.00 79 1017.7
20260508170030 63 300 2.0 7.0 0.00 0.00 0.00 79 1017.6
20260508165511 62 281 1.0 7.0 0.00 0.00 0.00 81 1017.7
20260508165017 62 220 3.0 7.0 0.00 0.00 0.00 80 1017.7
20260508164530 61 233 1.0 6.0 0.00 0.00 0.00 81 1017.7
20260508164012 61 171 3.0 6.0 0.00 0.00 0.00 84 1017.6
20260508163513 59 167 2.0 6.0 0.00 0.00 0.00 86 1017.5
20260508163028 59 288 2.0 6.0 0.00 0.00 0.00 85 1017.6
20260508162511 58 321 0.0 5.0 0.00 0.00 0.00 87 1017.6
20260508162013 57 192 1.0 6.0 0.00 0.00 0.00 86 1017.7
20260508161529 57 200 3.0 6.0 0.00 0.00 0.00 87 1017.6
20260508161010 57 191 3.0 6.0 0.00 0.00 0.00 88 1017.7
20260508160512 56 0 1.0 7.0 0.00 0.00 0.00 88 1017.7
20260508160028 56 235 2.0 7.0 0.00 0.00 0.00 89 1017.8
20260508155510 55 219 5.0 7.0 0.00 0.00 0.00 90 1017.8
20260508155014 55 209 2.0 7.0 0.00 0.00 0.00 89 1017.8
20260508154530 55 202 3.0 7.0 0.00 0.00 0.00 90 1017.7
20260508154012 55 233 2.0 8.0 0.00 0.00 0.00 90 1017.8
20260508153513 55 192 3.0 8.0 0.00 0.00 0.00 90 1017.8
20260508153028 54 204 3.0 9.0 0.00 0.00 0.00 90 1017.7
20260508152515 54 233 4.0 10.0 0.00 0.00 0.00 90 1017.7
20260508152011 54 242 5.0 10.0 0.00 0.00 0.00 90 1017.7
20260508151530 54 224 5.0 10.0 0.00 0.00 0.00 90 1017.7
20260508151013 54 249 5.0 10.0 0.00 0.00 0.00 90 1017.7
20260508150514 54 229 6.0 9.0 0.00 0.00 0.00 89 1017.7
20260508150033 55 239 5.0 9.0 0.00 0.00 0.00 90 1017.7
20260508145512 54 236 6.0 8.0 0.00 0.00 0.00 90 1017.7
20260508145012 54 228 5.0 8.0 0.00 0.00 0.00 91 1017.5
20260508144527 54 253 5.0 8.0 0.00 0.00 0.00 91 1017.4
20260508144013 54 207 5.0 8.0 0.00 0.00 0.00 91 1017.3
20260508143514 53 231 5.0 8.0 0.00 0.00 0.00 91 1017.4
20260508143033 53 220 3.0 7.0 0.00 0.00 0.00 91 1017.3
20260508142510 53 230 4.0 7.0 0.00 0.00 0.00 92 1017.4
20260508142012 53 205 4.0 6.0 0.00 0.00 0.00 92 1017.2
20260508141549 52 207 4.0 6.0 0.00 0.00 0.00 92 1017.2
20260508141009 52 178 4.0 6.0 0.00 0.00 0.00 92 1017.1
20260508140516 52 200 4.0 6.0 0.00 0.00 0.00 92 1017.1
20260508140029 52 184 3.0 6.0 0.00 0.00 0.00 92 1017.0
20260508135512 51 198 3.0 5.0 0.00 0.00 0.00 92 1017.1
20260508135012 51 196 3.0 6.0 0.00 0.00 0.00 92 1016.9
20260508134542 51 180 3.0 6.0 0.00 0.00 0.00 92 1016.8
20260508134011 51 180 1.0 4.0 0.00 0.00 0.00 92 1016.7
20260508133515 51 178 1.0 4.0 0.00 0.00 0.00 92 1016.8
20260508133026 51 191 2.0 6.0 0.00 0.00 0.00 92 1016.8
20260508132513 51 208 2.0 7.0 0.00 0.00 0.00 93 1016.8
20260508132012 51 225 3.0 7.0 0.00 0.00 0.00 93 1016.9
20260508131530 51 221 5.0 7.0 0.00 0.00 0.00 93 1016.9
20260508131012 51 225 4.0 7.0 0.00 0.00 0.00 93 1016.9
20260508130512 51 254 4.0 8.0 0.00 0.00 0.00 93 1016.8
20260508130029 51 223 4.0 8.0 0.00 0.00 0.00 93 1016.8
20260508125511 51 254 4.0 8.0 0.00 0.00 0.00 93 1016.8
20260508125014 51 243 4.0 9.0 0.00 0.00 0.00 93 1016.6
20260508124530 51 244 5.0 9.0 0.00 0.00 0.00 93 1016.6
20260508124013 51 225 4.0 8.0 0.00 0.00 0.00 93 1016.6
20260508123513 50 213 3.0 5.0 0.00 0.00 0.00 93 1016.6
20260508123043 50 208 2.0 4.0 0.00 0.00 0.00 93 1016.6
20260508122513 50 200 2.0 5.0 0.00 0.00 0.00 93 1016.6
20260508122013 50 200 1.0 5.0 0.00 0.00 0.00 93 1016.6
20260508121533 50 190 3.0 5.0 0.00 0.00 0.00 93 1016.5
20260508121012 50 170 2.0 5.0 0.00 0.00 0.00 93 1016.4
20260508120511 50 165 2.0 5.0 0.00 0.00 0.00 92 1016.3
20260508120028 50 0 0.0 0.0 0.00 0.00 0.00 92 1016.3
20260508115514 50 0 0.0 0.0 0.00 0.00 0.00 92 1016.3
20260508115011 50 0 0.0 0.0 0.00 0.00 0.00 93 1016.3
20260508114532 50 0 0.0 0.0 0.00 0.00 0.00 92 1016.4
20260508114012 51 0 0.0 0.0 0.00 0.00 0.00 93 1016.3
20260508113513 51 0 0.0 0.0 0.00 0.00 0.00 93 1016.3
20260508113044 51 0 0.0 0.0 0.00 0.00 0.00 92 1016.2
20260508112514 51 0 0.0 0.0 0.00 0.00 0.00 93 1016.2
20260508112010 51 0 0.0 2.0 0.00 0.00 0.00 92 1016.3
20260508111527 51 0 0.0 2.0 0.00 0.00 0.00 93 1016.3
20260508111018 51 178 1.0 2.0 0.00 0.00 0.00 92 1016.2
20260508110512 51 176 0.0 2.0 0.00 0.00 0.00 92 1016.2
20260508110030 51 0 0.0 1.0 0.00 0.00 0.00 92 1016.2
20260508105515 51 0 0.0 1.0 0.00 0.00 0.00 92 1016.2
20260508105013 51 0 0.0 1.0 0.00 0.00 0.00 91 1016.1
20260508104530 51 0 0.0 1.0 0.00 0.00 0.00 92 1016.2
20260508104013 51 0 0.0 1.0 0.00 0.00 0.00 92 1016.1
20260508103513 52 0 0.0 0.0 0.00 0.00 0.00 91 1016.1
20260508103035 52 0 0.0 0.0 0.00 0.00 0.00 92 1016.2
20260508102512 52 0 0.0 1.0 0.00 0.00 0.00 91 1016.0
20260508102010 52 0 0.0 1.0 0.00 0.00 0.00 91 1016.0
20260508101531 53 0 0.0 1.0 0.00 0.00 0.00 91 1016.1
20260508101016 53 0 0.0 2.0 0.00 0.00 0.00 91 1016.0
20260508100516 53 0 0.0 3.0 0.00 0.00 0.00 91 1015.9
20260508100029 53 0 0.0 5.0 0.00 0.00 0.00 91 1015.9
20260508095513 53 192 2.0 5.0 0.00 0.00 0.00 91 1015.9
20260508095013 53 173 2.0 5.0 0.00 0.00 0.00 91 1015.9
20260508094528 53 184 2.0 5.0 0.00 0.00 0.00 91 1016.0
20260508094013 53 181 2.0 4.0 0.00 0.00 0.00 91 1015.9
20260508093513 53 202 2.0 4.0 0.00 0.00 0.00 91 1016.0
20260508093030 53 189 2.0 4.0 0.00 0.00 0.00 90 1015.9
20260508092512 53 203 2.0 4.0 0.00 0.00 0.00 90 1016.0
20260508092011 53 207 3.0 5.0 0.00 0.00 0.00 90 1016.0
20260508091536 54 201 2.0 5.0 0.00 0.00 0.00 90 1016.1
20260508091015 54 220 3.0 5.0 0.00 0.00 0.00 90 1015.9
20260508090513 54 218 2.0 5.0 0.00 0.00 0.00 90 1015.9
20260508090038 54 252 2.0 5.0 0.00 0.00 0.00 90 1015.9
20260508085512 54 214 1.0 5.0 0.00 0.00 0.00 90 1015.9
20260508085009 54 209 3.0 5.0 0.00 0.00 0.00 90 1015.9
20260508084530 54 207 3.0 5.0 0.00 0.00 0.00 90 1015.9
20260508084014 54 200 2.0 7.0 0.00 0.00 0.00 90 1015.9
20260508083513 54 208 3.0 7.0 0.00 0.00 0.00 90 1016.0
20260508083029 54 207 5.0 7.0 0.00 0.00 0.00 90 1016.0
20260508082512 54 231 5.0 7.0 0.00 0.00 0.00 90 1016.0
20260508082012 54 223 3.0 6.0 0.00 0.00 0.00 90 1016.0
20260508081528 55 253 2.0 5.0 0.00 0.00 0.00 90 1016.0
20260508081011 55 263 3.0 8.0 0.00 0.00 0.00 90 1016.0
20260508080514 55 255 3.0 8.0 0.00 0.00 0.00 90 1016.0
20260508080034 55 249 5.0 8.0 0.00 0.00 0.00 90 1016.1
20260508075512 54 244 3.0 5.0 0.00 0.00 0.00 90 1015.9
20260508075012 54 250 3.0 5.0 0.00 0.00 0.00 89 1015.9
20260508074531 55 265 2.0 4.0 0.00 0.00 0.00 90 1015.9
20260508074010 55 265 2.0 3.0 0.00 0.00 0.00 89 1015.9
20260508073510 55 258 2.0 3.0 0.00 0.00 0.00 89 1015.8
20260508073028 56 257 1.0 3.0 0.00 0.00 0.00 88 1015.9
20260508072510 56 0 0.0 4.0 0.00 0.00 0.00 89 1015.9
20260508072012 56 257 1.0 4.0 0.00 0.00 0.00 89 1015.7
20260508071531 56 257 2.0 4.0 0.00 0.00 0.00 88 1015.8
20260508071017 56 237 3.0 4.0 0.00 0.00 0.00 88 1015.8
20260508070517 56 250 1.0 5.0 0.00 0.00 0.00 88 1015.7
20260508070029 56 267 2.0 6.0 0.00 0.00 0.00 87 1015.7
20260508065509 57 262 3.0 7.0 0.00 0.00 0.00 86 1015.7
20260508065015 57 259 3.0 7.0 0.00 0.00 0.00 86 1015.7
20260508064530 57 250 4.0 7.0 0.00 0.00 0.00 86 1015.7
20260508064012 57 221 2.0 4.0 0.00 0.00 0.00 86 1015.6
20260508063514 57 212 2.0 5.0 0.00 0.00 0.00 86 1015.7
20260508063028 58 205 3.0 5.0 0.00 0.00 0.00 85 1015.6
20260508062510 58 199 2.0 6.0 0.00 0.00 0.00 86 1015.6
20260508062010 58 214 3.0 6.0 0.00 0.00 0.00 86 1015.6
20260508061527 58 198 2.0 5.0 0.00 0.00 0.00 85 1015.6
20260508061011 58 169 2.0 5.0 0.00 0.00 0.00 85 1015.5
20260508060512 58 0 0.0 5.0 0.00 0.00 0.00 84 1015.6
20260508060028 59 171 2.0 5.0 0.00 0.00 0.00 84 1015.5
20260508055513 59 0 0.0 4.0 0.00 0.00 0.00 84 1015.5
20260508055012 59 174 1.0 5.0 0.00 0.00 0.00 84 1015.7
20260508054531 59 169 2.0 5.0 0.00 0.00 0.00 84 1015.7
20260508054012 59 171 0.0 4.0 0.00 0.00 0.00 84 1015.7
20260508053510 59 205 2.0 4.0 0.00 0.00 0.00 84 1015.7
20260508053030 60 273 1.0 3.0 0.00 0.00 0.00 83 1015.6
20260508052513 60 228 1.0 3.0 0.00 0.00 0.00 83 1015.6
20260508052012 60 0 0.0 2.0 0.00 0.00 0.00 83 1015.7
20260508051528 61 228 0.0 6.0 0.00 0.00 0.00 83 1015.6
20260508051012 61 0 1.0 7.0 0.00 0.00 0.00 83 1015.5
20260508050511 61 224 4.0 7.0 0.00 0.00 0.00 83 1015.4
20260508050031 61 220 3.0 5.0 0.00 0.00 0.00 84 1015.3
20260508045516 61 238 2.0 5.0 0.00 0.00 0.00 83 1015.2
20260508045013 61 242 3.0 7.0 0.00 0.00 0.00 83 1015.3
20260508044527 62 231 3.0 7.0 0.00 0.00 0.00 82 1015.2
20260508044012 62 248 3.0 9.0 0.00 0.00 0.00 82 1015.0
20260508043518 62 222 4.0 9.0 0.00 0.00 0.00 82 1015.0
20260508043028 62 238 5.0 9.0 0.00 0.00 0.00 82 1015.1
20260508042511 63 261 4.0 8.0 0.00 0.00 0.00 82 1015.1
20260508042012 63 254 4.0 8.0 0.00 0.00 0.00 81 1015.0
20260508041530 63 234 3.0 7.0 0.00 0.00 0.00 81 1015.1
20260508041011 63 234 3.0 7.0 0.00 0.00 0.00 81 1015.0
20260508040516 64 244 3.0 6.0 0.00 0.00 0.00 80 1015.0
20260508040029 64 240 3.0 7.0 0.00 0.00 0.00 79 1014.9
20260508035514 64 239 3.0 8.0 0.00 0.00 0.00 78 1014.9
20260508035017 65 248 4.0 11.0 0.00 0.00 0.00 78 1014.7
20260508034528 65 248 5.0 11.0 0.00 0.00 0.00 77 1014.7
20260508034013 66 246 6.0 13.0 0.00 0.00 0.00 76 1014.6
20260508033518 66 257 6.0 13.0 0.00 0.00 0.00 76 1014.6
20260508033028 67 240 6.0 12.0 0.00 0.00 0.00 75 1014.6
20260508032512 67 238 7.0 12.0 0.00 0.00 0.00 75 1014.5
20260508032015 68 246 7.0 14.0 0.00 0.00 0.00 75 1014.4
20260508031530 68 236 7.0 14.0 0.00 0.00 0.00 75 1014.3
20260508031010 69 244 5.0 10.0 0.00 0.00 0.00 74 1014.3
20260508030512 70 252 6.0 11.0 0.00 0.00 0.00 73 1014.2
20260508030028 70 229 6.0 11.0 0.00 0.00 0.00 73 1014.1
20260508025512 71 244 5.0 11.0 0.00 0.00 0.00 73 1014.1
20260508025015 72 244 5.0 11.0 0.00 0.00 0.00 71 1014.1
20260508024535 72 239 8.0 11.0 0.00 0.00 0.00 70 1014.1
20260508024012 73 249 6.0 10.0 0.00 0.00 0.00 71 1014.1
20260508023517 73 245 6.0 11.0 0.00 0.00 0.00 70 1014.1
20260508023030 74 231 7.0 11.0 0.00 0.00 0.00 70 1014.1
20260508022517 74 246 6.0 11.0 0.00 0.00 0.00 70 1014.0
20260508022014 75 260 5.0 12.0 0.00 0.00 0.00 68 1014.0
20260508021534 76 233 7.0 12.0 0.00 0.00 0.00 67 1013.9
20260508021016 76 227 4.0 10.0 0.00 0.00 0.00 65 1013.9
20260508020510 77 234 5.0 8.0 0.00 0.00 0.00 64 1013.8
20260508020028 77 238 5.0 8.0 0.00 0.00 0.00 63 1013.9
20260508015512 78 245 4.0 9.0 0.00 0.00 0.00 62 1013.9
20260508015014 78 240 4.0 9.0 0.00 0.00 0.00 62 1014.0
20260508014530 79 236 4.0 9.0 0.00 0.00 0.00 61 1014.1
20260508014012 79 223 5.0 10.0 0.00 0.00 0.00 63 1014.1
20260508013517 79 252 5.0 10.0 0.00 0.00 0.00 61 1014.1
20260508013038 80 240 6.0 10.0 0.00 0.00 0.00 62 1014.0
20260508012514 80 223 5.0 8.0 0.00 0.00 0.00 62 1014.0
20260508012014 80 242 4.0 10.0 0.00 0.00 0.00 60 1014.0
20260508011529 80 230 5.0 10.0 0.00 0.00 0.00 60 1014.0
20260508011010 81 228 4.0 9.0 0.00 0.00 0.00 60 1014.1
20260508010512 81 220 5.0 9.0 0.00 0.00 0.00 60 1014.1
20260508010027 81 259 5.0 9.0 0.00 0.00 0.00 59 1014.1
20260508005518 81 240 3.0 7.0 0.00 0.00 0.00 59 1014.1
20260508005017 81 239 3.0 7.0 0.00 0.00 0.00 57 1014.1
20260508004536 81 227 3.0 8.0 0.00 0.00 0.00 58 1014.1
20260508004013 82 252 4.0 8.0 0.00 0.00 0.00 57 1014.2
20260508003512 82 215 3.0 7.0 0.00 0.00 0.00 59 1014.2
20260508003028 81 306 2.0 7.0 0.00 0.00 0.00 57 1014.2
20260508002511 80 307 3.0 4.0 0.00 0.00 0.00 60 1014.2
20260508002013 81 227 2.0 7.0 0.00 0.00 0.00 60 1014.2
20260508001530 81 0 3.0 7.0 0.00 0.00 0.00 57 1014.2
20260508001011 80 282 2.0 7.0 0.00 0.00 0.00 61 1014.2
20260508000513 82 250 2.0 8.0 0.00 0.00 0.00 57 1014.2
20260508000027 82 275 2.0 8.0 0.00 0.00 0.00 55 1014.2
20260507235512 82 265 4.0 8.0 0.00 0.00 0.00 56 1014.3
20260507235015 82 265 1.0 8.0 0.00 0.00 0.00 58 1014.3
20260507234529 81 255 4.0 8.0 0.00 0.00 0.00 59 1014.3
20260507234012 81 275 2.0 7.0 0.00 0.00 0.00 57 1014.3
20260507233512 81 284 1.0 6.0 0.00 0.00 0.00 58 1014.3
20260507233036 81 294 2.0 7.0 0.00 0.00 0.00 57 1014.3
20260507232512 81 355 3.0 8.0 0.00 0.00 0.00 57 1014.4
20260507232017 82 281 3.0 8.0 0.00 0.00 0.00 58 1014.5
20260507231527 82 269 4.0 8.0 0.00 0.00 0.00 55 1014.5
20260507231016 82 281 1.0 7.0 0.00 0.00 0.00 56 1014.5
20260507230511 81 311 2.0 7.0 0.00 0.00 0.00 55 1014.6
20260507230029 80 300 3.0 7.0 0.00 0.00 0.00 61 1014.7
20260507225512 80 311 2.0 9.0 0.00 0.00 0.00 59 1014.9
20260507225013 81 247 4.0 9.0 0.00 0.00 0.00 54 1015.0
20260507224533 81 298 4.0 7.0 0.00 0.00 0.00 54 1015.0
20260507224013 81 210 2.0 7.0 0.00 0.00 0.00 56 1015.1
20260507223513 81 209 2.0 7.0 0.00 0.00 0.00 58 1015.2
20260507223029 80 317 3.0 7.0 0.00 0.00 0.00 57 1015.2
20260507222511 79 5 1.0 7.0 0.00 0.00 0.00 59 1015.2
20260507222011 80 290 3.0 9.0 0.00 0.00 0.00 58 1015.4
20260507221528 80 300 3.0 9.0 0.00 0.00 0.00 59 1015.5
20260507221015 79 280 4.0 9.0 0.00 0.00 0.00 62 1015.6
20260507220511 80 44 1.0 4.0 0.00 0.00 0.00 59 1015.7
20260507220030 80 0 1.0 4.0 0.00 0.00 0.00 60 1015.8
20260507215512 79 0 1.0 8.0 0.00 0.00 0.00 58 1015.9
20260507215013 80 0 2.0 8.0 0.00 0.00 0.00 55 1016.0
20260507214528 80 249 5.0 8.0 0.00 0.00 0.00 59 1016.0
20260507214016 78 309 2.0 7.0 0.00 0.00 0.00 61 1016.1
20260507213516 78 332 3.0 7.0 0.00 0.00 0.00 62 1016.1
20260507213028 78 325 0.0 9.0 0.00 0.00 0.00 60 1016.2
20260507212511 79 0 2.0 9.0 0.00 0.00 0.00 61 1016.3
20260507212014 79 17 1.0 5.0 0.00 0.00 0.00 62 1016.3
20260507211527 78 50 2.0 7.0 0.00 0.00 0.00 61 1016.4
20260507211011 78 0 2.0 7.0 0.00 0.00 0.00 61 1016.5
20260507210513 78 5 2.0 7.0 0.00 0.00 0.00 60 1016.5
20260507210039 78 235 3.0 7.0 0.00 0.00 0.00 62 1016.6
20260507205512 78 240 3.0 7.0 0.00 0.00 0.00 63 1016.7
20260507205011 78 252 2.0 8.0 0.00 0.00 0.00 62 1016.8
20260507204528 79 242 1.0 8.0 0.00 0.00 0.00 59 1016.8
20260507204013 79 225 5.0 8.0 0.00 0.00 0.00 59 1016.9
20260507203512 78 252 4.0 7.0 0.00 0.00 0.00 63 1016.9
20260507203030 78 263 2.0 8.0 0.00 0.00 0.00 56 1017.1
20260507202513 78 292 3.0 8.0 0.00 0.00 0.00 65 1017.0
20260507202011 76 279 4.0 8.0 0.00 0.00 0.00 63 1017.1
20260507201529 76 250 2.0 8.0 0.00 0.00 0.00 61 1017.1
20260507201011 77 308 1.0 8.0 0.00 0.00 0.00 63 1017.1
20260507200512 76 292 4.0 8.0 0.00 0.00 0.00 65 1017.0
20260507200028 75 325 0.0 8.0 0.00 0.00 0.00 62 1017.2
20260507195517 76 290 1.0 8.0 0.00 0.00 0.00 65 1017.2
20260507195010 76 282 4.0 8.0 0.00 0.00 0.00 66 1017.3
20260507194550 74 293 3.0 7.0 0.00 0.00 0.00 65 1017.4
20260507194011 74 0 0.0 5.0 0.00 0.00 0.00 67 1017.5
20260507193511 74 338 2.0 13.0 0.00 0.00 0.00 64 1017.4
20260507193033 74 336 5.0 13.0 0.00 0.00 0.00 61 1017.5
20260507192509 73 22 3.0 8.0 0.00 0.00 0.00 66 1017.6
20260507192013 74 321 3.0 10.0 0.00 0.00 0.00 65 1017.6
20260507191530 74 237 3.0 10.0 0.00 0.00 0.00 65 1017.6
20260507191010 73 262 3.0 9.0 0.00 0.00 0.00 67 1017.7
20260507190514 74 287 4.0 9.0 0.00 0.00 0.00 67 1017.7